Simultaneous Nadir Overpasses (SNOs) Predictions

Prediction of SNOs near US between AQUA and NPP Satellite Orbit:

Table of predicted SNOs near US for the next 10.0 days since TLE Epoch: 6/15/2013
Index Date (AQUA) Time (AQUA) AQUA Lat,Lon Date (NPP) Time (NPP) NPP Lat,Lon Distance(km) Time Diff (sec)
1 06/17/2013 07:19:08 49.91, -76.01 06/17/2013 07:19:50 50.32, -78.21 163.11 42
2 06/17/2013 08:58:01 49.91,-100.73 06/17/2013 09:01:17 50.49,-103.51 207.59 196
3 06/19/2013 18:17:14 49.95, -80.16 06/19/2013 18:10:06 49.67, -81.80 121.65 428
4 06/19/2013 19:56:07 49.95,-104.88 06/19/2013 19:51:34 49.56,-107.13 166.91 273
5 06/19/2013 21:31:18 36.72,-125.00 06/19/2013 21:29:14 36.25,-127.64 241.77 124
6 06/22/2013 09:24:46 20.02,-114.24 06/22/2013 09:16:26 19.69,-114.84 73.10 500
